Location: Ohmer (historical)
(38.0096°N, 122.0227°W)
Time: 06:11:06
(UTC+00:00)

BREEZE-M DEB (TANK) - Pass Details

Date: 14 February 2026
Orbit: 284 x 13274 km, 49.4° (Epoch: 5 March)

Event Time Altitude Azimuth Distance (km) Brightness Sun altitude
Rises 14:03:06 0° 238° (WSW) 10,005 8.7 -11.6°
Reaches altitude 10° 14:12:59 10° 242° (WSW) 6,741 7.8 -9.7°
Maximum altitude 14:27:47 65° 323° (NW) 1,204 4.3 -6.8°
Drops below altitude 10° 14:31:51 10° 47° (NE) 1,980 6.2 -6.0°
Sets 14:33:14 0° 51° (NE) 2,578 6.9 -5.8°
